sat.trackr.live / text

‹ back to catalog

ONEWEB-0461

NORAD 51649 · 2022-012AD

PAYLOAD ACTIVE UNKNOWN

§ Identity

Operator
Country
UK
Launch date
2022-02-10
Launch site
FRGUI
Launch vehicle
Mass (kg)
RCS (m²)

Purposes: comms

External: N2YO · Heavens-Above · Gunter

§ Orbital elements

Epoch: 2026-05-25T03:28:04.134720Z

Period
109.29 min
Inclination
87.9162°
Eccentricity
0.0001733
Mean motion
13.17650899 rev/d
Perigee alt
1,192.4 km
Apogee alt
1,195.0 km
Semi-major
7,571.8 km
B*
4.5976e-5
RAAN
10.4376°
Arg perigee
89.1004°
Mean anomaly
271.0326°
Rev number
21,085

§ Raw data

ONEWEB-04611 51649U 22012AD  26145.14449230  .00000031  00000+0  45976-4 0  99952 51649  87.9162  10.4376 0001733  89.1004 271.0326 13.17650899210853

JSON: /api/v1/satellites/51649 · /tle

For live sub-satellite position, see the globe view (requires WebGL).

§ Visibility from observer

Set your observer location to see the next 7 days of passes ≥ 10°. The values pass through the URL so the page stays shareable.

No JS? Fill the form by hand. The geolocation button needs JavaScript.